Starlink 32581

operational
NORAD ID: 62184 Int'l Des: 2024-225 Owner: SPXS Country: US Constellation: starlink
LEOCIRCULAR

Über Starlink 32581

Beschreibung wird geladen...

Live-Position

3D-Globus wird geladen...

Nächste Überflüge

Höhenverlauf

Altitude vs Time

uPlot chart will show altitude changes over time

Zweizeiliger Elementsatz

1 62184U 24225X 26035.01940892 .00004434 00000-0 37903-3 0 9995
2 62184 69.9994 239.2549 0002459 280.9126 79.1756 14.98346635 65084
Epoch: 4. Feb. 2026 • Age: 17 hours

Aktueller Status

Höhe 583.5 km
Geschwindigkeit 7.57 km/s
Subsatellitenpunkt 60.94°N, 12.77°W
Startdatum 30. Nov. 2024
Alter 1.1 years
Typ internet

Technische Details

Klassifizierung Payload
Masse 730.00 kg
Trockenmasse 700.00 kg
Gesamtmasse 730.00 kg
Länge 0.30 m
Durchmesser 4.10 m
Spannweite 29.00 m
Form Box + pan
Hersteller SPXS
Bus-Typ Starlink V2M
Phasenstatus In Orbit
Besitzer/Staat SPXS/US

Große Konstellationen

Loading constellations...